Tracking 31027 objects as of 19-Jul-2025
HD Live streaming from Space Station
objects crossing your sky now

DELTA 1 DEB

Track DELTA 1 DEB now!
10-day predictions


NORAD ID: 42586
Int'l Code: 1973-086JA
Perigee: 1,507.9 km
Apogee: 1,558.3 km
Inclination: 102.4 °
Period: 116.6 minutes
Semi major axis: 7904 km
RCS: Unknown
Launch date: November 6, 1973
Source: United States (US)
Launch site: AIR FORCE WESTERN TEST RANGE (AFWTR)

Note: This is SATELLITE DEBRIS
Your satellite tracking list
Your tracking list is empty




NASA's NSSDC Master Catalog

Two Line Element Set (TLE):
1 42586U 73086JA  25197.27309685 -.00000010  00000-0  28762-3 0  9993
2 42586 102.3976 212.5376 0031872  48.6469 332.0010 12.35455821525398
Source of the keplerian elements: AFSPC